• In Portugal
  • List of Countries
  • For 7 days
  • Water Temperature
  • Satellite Maps
  • Weather Map
  • Weather Widgets
  • user-avatar
    Login

    Hourly Weather Qala i Naw

    Today, 21 November, Tuesday

    Time Temperature Precipitation Wind Pressure Humidity
    00:00 +9°C° 0 mm 2 mps 682 mmHg 18%
    01:00 +9°C° 0 mm 2 mps 682 mmHg 18%
    02:00 +9°C° 0 mm 2 mps 682 mmHg 18%
    03:00 +9°C° 0 mm 2 mps 682 mmHg 18%
    04:00 +8°C° 0 mm 2 mps 682 mmHg 19%
    05:00 +8°C° 0 mm 2 mps 682 mmHg 19%
    06:00 +9°C° 0 mm 2 mps 682 mmHg 19%
    07:00 +9°C° 0 mm 2 mps 682 mmHg 18%
    08:00 +12°C° 0 mm 2 mps 683 mmHg 16%
    09:00 +15°C° 0 mm 2 mps 683 mmHg 13%
    10:00 +18°C° 0 mm 2 mps 683 mmHg 11%
    11:00 +19°C° 0 mm 2 mps 683 mmHg 10%
    12:00 +21°C° 0 mm 1 mps 683 mmHg 9%
    13:00 +21°C° 0 mm 1 mps 683 mmHg 8%
    14:00 +21°C° 0 mm 1 mps 682 mmHg 9%
    15:00 +20°C° 0 mm 1 mps 682 mmHg 10%
    16:00 +19°C° 0 mm 1 mps 681 mmHg 10%
    17:00 +18°C° 0 mm 1 mps 681 mmHg 12%
    18:00 +15°C° 0 mm 2 mps 681 mmHg 13%
    19:00 +14°C° 0 mm 2 mps 681 mmHg 14%
    20:00 +13°C° 0 mm 2 mps 681 mmHg 14%
    21:00 +13°C° 0 mm 2 mps 680 mmHg 14%
    22:00 +13°C° 0 mm 2 mps 680 mmHg 15%
    23:00 +13°C° 0 mm 2 mps 680 mmHg 15%

    Tomorrow, 22 November, Wednesday

    Time Temperature Precipitation Wind Pressure Humidity
    00:00 +11°C° 0 mm 3 mps 680 mmHg 15%
    01:00 +11°C° 0 mm 3 mps 679 mmHg 15%
    02:00 +11°C° 0 mm 3 mps 679 mmHg 16%
    03:00 +11°C° 0 mm 3 mps 679 mmHg 16%
    04:00 +11°C° 0 mm 3 mps 679 mmHg 16%
    05:00 +11°C° 0 mm 3 mps 679 mmHg 16%
    06:00 +11°C° 0 mm 3 mps 679 mmHg 15%
    07:00 +11°C° 0 mm 3 mps 679 mmHg 15%
    08:00 +13°C° 0 mm 3 mps 680 mmHg 13%
    09:00 +17°C° 0 mm 2 mps 680 mmHg 11%
    10:00 +19°C° 0 mm 2 mps 681 mmHg 9%
    11:00 +20°C° 0 mm 2 mps 680 mmHg 8%
    12:00 +21°C° 0 mm 2 mps 680 mmHg 8%
    13:00 +21°C° 0 mm 2 mps 680 mmHg 7%
    14:00 +21°C° 0 mm 2 mps 679 mmHg 8%
    15:00 +20°C° 0 mm 2 mps 679 mmHg 8%
    16:00 +19°C° 0 mm 2 mps 679 mmHg 9%
    17:00 +18°C° 0 mm 2 mps 679 mmHg 10%
    18:00 +17°C° 0 mm 2 mps 679 mmHg 11%
    19:00 +17°C° 0 mm 2 mps 679 mmHg 12%
    20:00 +16°C° 0 mm 2 mps 679 mmHg 13%
    21:00 +16°C° 0 mm 2 mps 679 mmHg 15%
    22:00 +16°C° 0 mm 2 mps 679 mmHg 17%
    23:00 +16°C° 0 mm 2 mps 679 mmHg 18%

    Day after tomorrow, 23 November, Thursday

    Time Temperature Precipitation Wind Pressure Humidity
    00:00 +15°C° 0 mm 2 mps 679 mmHg 20%
    01:00 +15°C° 0 mm 2 mps 679 mmHg 21%
    02:00 +15°C° 0 mm 2 mps 678 mmHg 21%
    03:00 +14°C° 0 mm 2 mps 678 mmHg 22%
    04:00 +14°C° 0 mm 2 mps 678 mmHg 22%
    05:00 +14°C° 0 mm 2 mps 678 mmHg 22%
    06:00 +13°C° 0 mm 3 mps 678 mmHg 22%
    07:00 +13°C° 0 mm 3 mps 679 mmHg 22%
    08:00 +16°C° 0 mm 3 mps 679 mmHg 20%
    09:00 +18°C° 0 mm 3 mps 680 mmHg 18%
    10:00 +20°C° 0 mm 3 mps 680 mmHg 15%
    11:00 +21°C° 0 mm 3 mps 680 mmHg 15%
    12:00 +22°C° 0 mm 3 mps 680 mmHg 16%
    13:00 +24°C° 0 mm 3 mps 679 mmHg 16%
    14:00 +23°C° 0 mm 2 mps 679 mmHg 17%
    15:00 +21°C° 0 mm 2 mps 679 mmHg 18%
    16:00 +21°C° 0 mm 2 mps 679 mmHg 20%
    17:00 +20°C° 0 mm 2 mps 679 mmHg 21%
    18:00 +18°C° 0 mm 2 mps 679 mmHg 23%
    19:00 +17°C° 0 mm 2 mps 679 mmHg 25%
    20:00 +17°C° 0 mm 2 mps 679 mmHg 26%
    21:00 +17°C° 0 mm 2 mps 679 mmHg 26%
    22:00 +16°C° 0 mm 2 mps 679 mmHg 27%
    23:00 +16°C° 0 mm 2 mps 679 mmHg 27%

    24 November, Friday

    Time Temperature Precipitation Wind Pressure Humidity
    00:00 +16°C° 0 mm 2 mps 679 mmHg 28%
    01:00 +15°C° 0 mm 2 mps 679 mmHg 28%
    02:00 +15°C° 0 mm 2 mps 679 mmHg 28%
    03:00 +15°C° 0 mm 2 mps 680 mmHg 28%
    04:00 +15°C° 0 mm 2 mps 680 mmHg 29%
    05:00 +14°C° 0 mm 2 mps 680 mmHg 31%
    06:00 +13°C° 0 mm 2 mps 680 mmHg 34%
    07:00 +13°C° 0 mm 2 mps 681 mmHg 36%
    08:00 +14°C° 0 mm 2 mps 681 mmHg 36%
    09:00 +14°C° 0 mm 2 mps 681 mmHg 37%
    10:00 +15°C° 0 mm 2 mps 682 mmHg 37%
    11:00 +16°C° 0.1 mm 3 mps 681 mmHg 37%
    12:00 +17°C° 0.1 mm 3 mps 681 mmHg 38%
    13:00 +17°C° 0.1 mm 3 mps 681 mmHg 38%
    14:00 +17°C° 0.2 mm 3 mps 681 mmHg 41%
    15:00 +16°C° 0.2 mm 3 mps 680 mmHg 44%
    16:00 +16°C° 0.2 mm 3 mps 680 mmHg 47%
    17:00 +15°C° 0.1 mm 2 mps 680 mmHg 48%
    18:00 +14°C° 0.1 mm 2 mps 680 mmHg 50%
    19:00 +14°C° 0.1 mm 2 mps 680 mmHg 51%
    20:00 +14°C° 0 mm 2 mps 680 mmHg 51%
    21:00 +13°C° 0 mm 2 mps 680 mmHg 50%
    22:00 +13°C° 0 mm 2 mps 680 mmHg 49%
    23:00 +13°C° 0 mm 2 mps 679 mmHg 49%

    25 November, Saturday

    Time Temperature Precipitation Wind Pressure Humidity
    00:00 +12°C° 0 mm 2 mps 679 mmHg 48%
    01:00 +12°C° 0 mm 2 mps 679 mmHg 48%
    02:00 +12°C° 0 mm 2 mps 679 mmHg 47%
    03:00 +12°C° 0 mm 2 mps 679 mmHg 46%
    04:00 +11°C° 0 mm 3 mps 679 mmHg 45%
    05:00 +12°C° 0.1 mm 3 mps 679 mmHg 45%
    06:00 +12°C° 0.1 mm 3 mps 679 mmHg 45%
    07:00 +12°C° 0.1 mm 4 mps 679 mmHg 45%
    08:00 +14°C° 0.1 mm 5 mps 680 mmHg 41%
    09:00 +16°C° 0.1 mm 6 mps 680 mmHg 36%
    10:00 +20°C° 0.1 mm 7 mps 681 mmHg 32%
    11:00 +20°C° 0.1 mm 8 mps 681 mmHg 31%
    12:00 +19°C° 0.1 mm 10 mps 681 mmHg 30%
    13:00 +19°C° 0.1 mm 11 mps 681 mmHg 29%
    14:00 +18°C° 0 mm 10 mps 681 mmHg 28%
    15:00 +17°C° 0 mm 9 mps 682 mmHg 26%
    16:00 +16°C° 0 mm 8 mps 682 mmHg 24%
    17:00 +14°C° 0 mm 6 mps 683 mmHg 30%
    18:00 +12°C° 0 mm 4 mps 683 mmHg 35%
    19:00 +11°C° 0 mm 3 mps 684 mmHg 41%
    20:00 +10°C° 0 mm 2 mps 684 mmHg 49%
    21:00 +9°C° 0 mm 2 mps 684 mmHg 56%
    22:00 +8°C° 0 mm 2 mps 684 mmHg 64%
    23:00 +8°C° 0 mm 2 mps 684 mmHg 65%

    26 November, Sunday

    Time Temperature Precipitation Wind Pressure Humidity
    00:00 +8°C° 0 mm 1 mps 684 mmHg 66%
    01:00 +8°C° 0 mm 1 mps 684 mmHg 66%
    02:00 +8°C° 0 mm 1 mps 684 mmHg 65%
    03:00 +7°C° 0 mm 1 mps 684 mmHg 64%
    04:00 +7°C° 0 mm 1 mps 684 mmHg 63%
    05:00 +7°C° 0 mm 1 mps 685 mmHg 61%
    06:00 +7°C° 0 mm 1 mps 685 mmHg 60%
    07:00 +7°C° 0 mm 1 mps 685 mmHg 58%
    08:00 +8°C° 0 mm 1 mps 686 mmHg 51%
    09:00 +9°C° 0 mm 2 mps 686 mmHg 44%
    10:00 +10°C° 0 mm 2 mps 686 mmHg 38%
    11:00 +12°C° 0 mm 2 mps 686 mmHg 36%
    12:00 +11°C° 0 mm 3 mps 686 mmHg 34%
    13:00 +12°C° 0 mm 3 mps 685 mmHg 33%
    14:00 +12°C° 0 mm 3 mps 685 mmHg 34%
    15:00 +11°C° 0 mm 3 mps 685 mmHg 36%
    16:00 +11°C° 0 mm 3 mps 685 mmHg 38%
    17:00 +10°C° 0 mm 2 mps 685 mmHg 42%
    18:00 +9°C° 0 mm 2 mps 686 mmHg 47%
    19:00 +8°C° 0 mm 2 mps 686 mmHg 51%
    20:00 +8°C° 0 mm 1 mps 686 mmHg 55%
    21:00 +8°C° 0 mm 1 mps 687 mmHg 59%
    22:00 +7°C° 0 mm 1 mps 687 mmHg 62%
    23:00 +7°C° 0 mm 1 mps 687 mmHg 65%
    Show more